sat.trackr.live / text

‹ back to catalog

YAMAL 601

NORAD 44307 · 2019-031A

PAYLOAD ACTIVE UNKNOWN

§ Identity

Operator
Country
CIS
Launch date
2019-05-30
Launch site
TYMSC
Launch vehicle
Mass (kg)
RCS (m²)

Purposes: comms

External: N2YO · Heavens-Above · Gunter

§ Orbital elements

Epoch: 2026-09-19T23:25:28.672320Z

Period
1,436.10 min
Inclination
0.0156°
Eccentricity
0.0002406
Mean motion
1.00271269 rev/d
Perigee alt
35,776.6 km
Apogee alt
35,796.9 km
Semi-major
42,164.9 km
B*
0.0000e+0
RAAN
166.7059°
Arg perigee
2.3409°
Mean anomaly
230.2113°
Rev number
2,687

§ Raw data

YAMAL 6011 44307U 19031A   26262.97602630  .00000116  00000+0  00000+0 0  99992 44307   0.0156 166.7059 0002406   2.3409 230.2113  1.00271269 26879

JSON: /api/v1/satellites/44307 · /tle

For live sub-satellite position, see the globe view (requires WebGL).

§ Visibility from observer

Set your observer location to see the next 7 days of passes ≥ 10°. The values pass through the URL so the page stays shareable.

No JS? Fill the form by hand. The geolocation button needs JavaScript.